Greenville, NC

8:53 PM EST on February 25, 2017 (GMT -0500)
Pitt-Greenville

Weather History for KPGV - August, 2013

Change the Weather History Date:

Wednesday, August 14, 2013

  Actual Average Record
Temperature  
Mean Temperature 70 °F -  
Max Temperature 77 °F 87 °F 96 °F (1933)
Min Temperature 62 °F 67 °F 53 °F (1983)
Cooling Degree Days 6    
Growing Degree Days 20 (Base 50)    
Moisture  
Dew Point 64 °F    
Average Humidity 79    
Maximum Humidity 100    
Minimum Humidity 53    
Precipitation  
Precipitation 0.00 in - - ()
Sea Level Pressure  
Sea Level Pressure 29.97 in    
Wind  
Wind Speed 7 mph (North)    
Max Wind Speed 20 mph    
Max Gust Speed 25 mph    
Visibility 10 miles    
Events Rain , Thunderstorm    
Averages and records for this station are not official NWS values.
T = Trace of Precipitation, MM = Missing Value Source: NWS Daily Summary

Daily Weather History Graph

Daily Weather History Graph

Search for Another Location

Airport or City:

Trip Planner

Search our weather history database for the weather conditions in past years. The results will help you decide how hot, cold, wet, or windy it might be!

Date:

Astronomy

Aug. 14, 2013 Rise Set
Actual Time 6:27 AM EDT 7:59 PM EDT
Civil Twilight 6:00 AM EDT 8:26 PM EDT
Nautical Twilight 5:28 AM EDT 8:59 PM EDT
Astronomical Twilight 4:53 AM EDT 9:33 PM EDT
Moon 2:07 PM EDT (8/14) No Moon Set
Length of Visible Light 14h 25m
Length of Day
13h 31m
First Quarter, 52% of the Moon is Illuminated
Aug 14
First Quarter
Aug 20
Full
Aug 28
Last Quarter
Sep 5
New
Sep 12
First Quarter

Hourly Weather History & Observations

Time (EDT) Temp. Dew Point Humidity Pressure Visibility Wind Dir Wind Speed Gust Speed Precip Events Conditions
12:15 AM 77.0 °F 75.2 °F 94% 29.84 in 10.0 mi SW 6.9 mph - N/A   Scattered Clouds
12:35 AM 77.0 °F 73.4 °F 89% 29.85 in 10.0 mi SW 10.4 mph - N/A   Scattered Clouds
12:55 AM 77.0 °F 73.4 °F 89% 29.84 in 10.0 mi SW 10.4 mph 16.1 mph N/A Rain Light Rain
1:15 AM 77.0 °F 75.2 °F 94% 29.84 in 10.0 mi SW 8.1 mph - N/A   Scattered Clouds
1:35 AM 75.2 °F 73.4 °F 94% 29.84 in 10.0 mi WSW 8.1 mph - N/A   Clear
1:55 AM 75.2 °F 73.4 °F 94% 29.83 in 10.0 mi West 3.5 mph - N/A   Clear
2:15 AM 73.4 °F 73.4 °F 100% 29.83 in 10.0 mi West 4.6 mph - N/A   Clear
2:35 AM 73.4 °F 73.4 °F 100% 29.83 in 10.0 mi WSW 5.8 mph - N/A   Clear
2:55 AM 73.4 °F 73.4 °F 100% 29.82 in 10.0 mi WSW 5.8 mph - N/A   Clear
3:15 AM 73.4 °F 73.4 °F 100% 29.82 in 10.0 mi West 5.8 mph - N/A   Scattered Clouds
3:35 AM 73.4 °F 73.4 °F 100% 29.83 in 10.0 mi WSW 3.5 mph - N/A   Scattered Clouds
3:55 AM 73.4 °F 73.4 °F 100% 29.83 in 10.0 mi WSW 3.5 mph - N/A   Mostly Cloudy
4:15 AM 73.4 °F 73.4 °F 100% 29.83 in 10.0 mi West 4.6 mph - N/A   Overcast
4:35 AM 73.4 °F 73.4 °F 100% 29.83 in 10.0 mi Calm Calm - N/A   Mostly Cloudy
4:55 AM 73.4 °F 73.4 °F 100% 29.84 in 10.0 mi West 3.5 mph - N/A   Scattered Clouds
5:15 AM 73.4 °F 73.4 °F 100% 29.85 in 10.0 mi West 4.6 mph - N/A   Mostly Cloudy
5:35 AM 73.4 °F 73.4 °F 100% 29.85 in 10.0 mi NW 3.5 mph - N/A   Mostly Cloudy
5:55 AM 73.4 °F 73.4 °F 100% 29.86 in 10.0 mi NNW 4.6 mph - N/A Thunderstorm Overcast
6:15 AM 73.4 °F 73.4 °F 100% 29.87 in 10.0 mi NNW 6.9 mph - N/A   Mostly Cloudy
6:35 AM 73.4 °F 71.6 °F 94% 29.89 in 10.0 mi NNW 5.8 mph - N/A   Mostly Cloudy
6:55 AM 73.4 °F 71.6 °F 94% 29.89 in 10.0 mi North 8.1 mph - N/A   Scattered Clouds
7:15 AM 73.4 °F 71.6 °F 94% 29.90 in 10.0 mi NNE 8.1 mph - N/A   Clear
7:35 AM 73.4 °F 69.8 °F 88% 29.91 in 10.0 mi NNE 10.4 mph - N/A   Scattered Clouds
7:55 AM 71.6 °F 69.8 °F 94% 29.92 in 10.0 mi NNE 11.5 mph 17.3 mph N/A   Overcast
8:15 AM 71.6 °F 68.0 °F 88% 29.94 in 10.0 mi North 9.2 mph - N/A   Overcast
8:35 AM 73.4 °F 68.0 °F 83% 29.94 in 10.0 mi NNE 13.8 mph 17.3 mph N/A   Scattered Clouds
8:55 AM 73.4 °F 66.2 °F 78% 29.95 in 10.0 mi NNE 13.8 mph 21.9 mph N/A   Scattered Clouds
9:15 AM 73.4 °F 62.6 °F 69% 29.97 in 10.0 mi NNE 12.7 mph 21.9 mph N/A   Scattered Clouds
9:35 AM 73.4 °F 62.6 °F 69% 29.97 in 10.0 mi North 16.1 mph - N/A   Scattered Clouds
9:55 AM 73.4 °F 60.8 °F 65% 29.98 in 10.0 mi NE 19.6 mph 25.3 mph N/A   Scattered Clouds
10:15 AM 71.6 °F 59.0 °F 64% 29.99 in 10.0 mi NNE 16.1 mph 23.0 mph N/A   Scattered Clouds
10:35 AM 71.6 °F 60.8 °F 69% 30.00 in 10.0 mi NE 12.7 mph 19.6 mph N/A   Scattered Clouds
10:55 AM 71.6 °F 60.8 °F 69% 30.00 in 10.0 mi NNE 11.5 mph - N/A   Mostly Cloudy
11:15 AM 71.6 °F 62.6 °F 73% 30.01 in 10.0 mi NE 11.5 mph - N/A   Mostly Cloudy
11:35 AM 71.6 °F 62.6 °F 73% 30.01 in 10.0 mi North 8.1 mph - N/A   Mostly Cloudy
11:55 AM 71.6 °F 62.6 °F 73% 30.01 in 10.0 mi North 9.2 mph - N/A   Overcast
12:15 PM 71.6 °F 60.8 °F 69% 30.02 in 10.0 mi NNW 8.1 mph - N/A   Overcast
12:35 PM 71.6 °F 60.8 °F 69% 30.01 in 10.0 mi North 9.2 mph - N/A   Overcast
12:55 PM 71.6 °F 60.8 °F 69% 30.01 in 10.0 mi North 8.1 mph - N/A   Overcast
1:15 PM 71.6 °F 60.8 °F 69% 30.01 in 10.0 mi North 10.4 mph - N/A   Overcast
1:35 PM 71.6 °F 57.2 °F 60% 30.01 in 10.0 mi North 9.2 mph - N/A   Overcast
1:55 PM 71.6 °F 57.2 °F 60% 30.02 in 10.0 mi North 6.9 mph - N/A   Mostly Cloudy
2:15 PM 71.6 °F 57.2 °F 60% 30.01 in 10.0 mi North 10.4 mph - N/A   Mostly Cloudy
2:35 PM 71.6 °F 59.0 °F 64% 30.02 in 10.0 mi North 6.9 mph - N/A   Mostly Cloudy
2:55 PM 71.6 °F 57.2 °F 60% 30.02 in 10.0 mi NNE 8.1 mph - N/A   Overcast
3:55 PM 71.6 °F 55.4 °F 57% 30.02 in 10.0 mi North 8.1 mph - N/A   Overcast
4:15 PM 71.6 °F 55.4 °F 57% 30.02 in 10.0 mi North 8.1 mph - N/A   Overcast
4:35 PM 71.6 °F 55.4 °F 57% 30.03 in 10.0 mi North 4.6 mph - N/A   Overcast
4:55 PM 71.6 °F 55.4 °F 57% 30.03 in 10.0 mi NNE 6.9 mph - N/A   Overcast
5:15 PM 73.4 °F 55.4 °F 53% 30.02 in 10.0 mi ENE 5.8 mph - N/A   Overcast
5:35 PM 71.6 °F 55.4 °F 57% 30.02 in 10.0 mi NE 5.8 mph - N/A   Overcast
5:55 PM 71.6 °F 55.4 °F 57% 30.02 in 10.0 mi NE 8.1 mph - N/A   Scattered Clouds
6:15 PM 71.6 °F 55.4 °F 57% 30.03 in 10.0 mi NNE 6.9 mph - N/A   Scattered Clouds
6:35 PM 71.6 °F 55.4 °F 57% 30.03 in 10.0 mi NNE 4.6 mph - N/A   Mostly Cloudy
6:55 PM 71.6 °F 57.2 °F 60% 30.03 in 10.0 mi NE 4.6 mph - N/A   Mostly Cloudy
7:15 PM 71.6 °F 59.0 °F 64% 30.03 in 10.0 mi NNE 3.5 mph - N/A   Overcast
7:35 PM 69.8 °F 59.0 °F 68% 30.04 in 10.0 mi Calm Calm - N/A   Overcast
7:55 PM 69.8 °F 60.8 °F 73% 30.05 in 10.0 mi Calm Calm - N/A   Overcast
8:15 PM 68.0 °F 60.8 °F 78% 30.05 in 10.0 mi NNE 3.5 mph - N/A   Mostly Cloudy
8:35 PM 68.0 °F 60.8 °F 78% 30.06 in 10.0 mi Calm Calm - N/A   Mostly Cloudy
8:55 PM 68.0 °F 60.8 °F 78% 30.06 in 10.0 mi Calm Calm - N/A   Overcast
9:15 PM 68.0 °F 62.6 °F 83% 30.07 in 10.0 mi North 4.6 mph - N/A   Overcast
9:35 PM 68.0 °F 60.8 °F 78% 30.08 in 10.0 mi North 5.8 mph - N/A   Mostly Cloudy
9:55 PM 66.2 °F 60.8 °F 83% 30.09 in 10.0 mi NNE 3.5 mph - N/A   Scattered Clouds
10:15 PM 64.4 °F 60.8 °F 88% 30.10 in 10.0 mi North 3.5 mph - N/A   Clear
10:35 PM 64.4 °F 60.8 °F 88% 30.11 in 10.0 mi Calm Calm - N/A   Clear
10:55 PM 64.4 °F 59.0 °F 83% 30.10 in 10.0 mi NNE 3.5 mph - N/A   Clear
11:15 PM 64.4 °F 59.0 °F 83% 30.09 in 10.0 mi NE 3.5 mph - N/A   Scattered Clouds
11:35 PM 64.4 °F 59.0 °F 83% 30.10 in 10.0 mi North 3.5 mph - N/A   Clear
11:55 PM 62.6 °F 59.0 °F 88% 30.09 in 10.0 mi NNE 4.6 mph - N/A   Clear